Location: East Horndon
(51.5667°N, 0.3500°E)
Time: 22:48:32
(UTC+00:00)

Helios 1A Rocket - Pass Details

Date: 08 November 2025
Orbit: 440 x 453 km, 98.3° (Epoch: 04 December)

Event Time Altitude Azimuth Distance (km) Brightness Sun altitude
Rises 05:14:59 0° 172° (S) 2,453 6.3 -17.2°
Reaches altitude 10° 05:17:02 10° 176° (S) 1,580 5.3 -16.9°
Maximum altitude 05:20:22 59° 257° (WSW) 524 2.4 -16.3°
Enters shadow 05:22:30 20° 333° (NNW) 1,088 4.0 -16.0°
